N8YZF Weather Reports


Display with metric or nautical units.
time (UTC)temp
F
wind
direction
speed
MPH
gust
MPH
rain 1hr
in
rain 24hr
in
rain mn
in
humidity
%
barometer
mb
20240224023917 19 10 6.0 12.0 0.00 0.00 0.00 66 1006.9
20240224023417 19 23 5.0 11.0 0.00 0.00 0.00 65 1006.9
20240224022913 19 345 4.0 10.0 0.00 0.00 0.00 66 1006.9
20240224022413 19 305 5.0 13.0 0.00 0.00 0.00 66 1006.9
20240224021912 20 5 6.0 13.0 0.00 0.00 0.00 67 1006.9
20240224021414 20 346 5.0 13.0 0.00 0.00 0.00 67 1006.6
20240224021242 20 5 5.0 10.0 0.00 0.00 0.00 67 1006.6
20240224020753 20 14 5.0 13.0 0.00 0.00 0.00 67 1006.6
20240224015913 20 5 5.0 13.0 0.00 0.00 0.00 68 1006.5
20240224015414 20 345 5.0 10.0 0.00 0.00 0.00 67 1006.5
20240224014913 20 46 5.0 10.0 0.00 0.00 0.00 68 1006.5
20240224014412 20 346 5.0 13.0 0.00 0.00 0.00 68 1006.2
20240224013909 20 336 5.0 13.0 0.00 0.00 0.00 69 1006.3
20240224013403 20 15 6.0 12.0 0.00 0.00 0.00 68 1006.3
20240224012848 20 34 6.0 12.0 0.00 0.00 0.00 68 1006.1
20240224012346 20 12 5.0 10.0 0.00 0.00 0.00 67 1006.1
20240224011845 20 21 5.0 10.0 0.00 0.00 0.00 68 1006.1
20240224011344 20 0 6.0 14.0 0.00 0.00 0.00 67 1005.9
20240224011044 21 0 5.0 12.0 0.00 0.00 0.00 66 1005.9
20240224010958 21 0 7.0 14.0 0.00 0.00 0.00 66 1005.9
20240224010014 21 0 3.0 8.0 0.00 0.00 0.00 67 1005.7
20240224005940 21 0 4.0 10.0 0.00 0.00 0.00 66 1005.7
20240224005139 21 0 5.0 10.0 0.00 0.00 0.00 67 1005.7
20240224004340 22 0 6.0 13.0 0.00 0.00 0.00 66 1005.5
20240224003834 22 0 6.0 13.0 0.00 0.00 0.00 67 1005.5
20240224003329 22 0 5.0 11.0 0.00 0.00 0.00 66 1005.5
20240224002827 22 0 4.0 11.0 0.00 0.00 0.00 66 1005.1
20240224002327 22 0 4.0 10.0 0.00 0.00 0.00 65 1005.2
20240224001821 22 0 6.0 12.0 0.00 0.00 0.00 65 1005.2
20240224001624 22 0 6.0 12.0 0.00 0.00 0.00 64 1005.0
20240224000816 22 0 7.0 15.0 0.00 0.00 0.00 63 1005.0
20240224000310 23 0 6.0 15.0 0.00 0.00 0.00 62 1005.0
20240223235804 23 0 5.0 15.0 0.00 0.00 0.00 63 1004.8
20240223235600 23 0 5.0 15.0 0.00 0.00 0.00 62 1004.9
20240223235101 23 0 5.0 9.0 0.00 0.00 0.00 62 1004.9
20240223234253 24 0 5.0 9.0 0.00 0.00 0.00 62 1004.6
20240223233747 24 0 4.0 9.0 0.00 0.00 0.00 61 1004.6
20240223233240 24 0 5.0 10.0 0.00 0.00 0.00 61 1004.6
20240223232738 24 0 5.0 10.0 0.00 0.00 0.00 60 1004.5
20240223232541 24 0 4.0 10.0 0.00 0.00 0.00 60 1004.5
20240223231735 24 0 4.0 11.0 0.00 0.00 0.00 61 1004.6
20240223231228 24 0 4.0 11.0 0.00 0.00 0.00 61 1004.2
20240223231043 24 0 5.0 10.0 0.00 0.00 0.00 62 1004.2
20240223230227 25 0 5.0 10.0 0.00 0.00 0.00 63 1004.2
20240223225728 25 0 5.0 12.0 0.00 0.00 0.00 62 1004.1
20240223225225 25 0 4.0 12.0 0.00 0.00 0.00 61 1004.1
20240223224725 25 0 5.0 10.0 0.00 0.00 0.00 61 1004.1
20240223224223 25 0 6.0 9.0 0.00 0.00 0.00 60 1004.1
20240223223723 25 0 6.0 13.0 0.00 0.00 0.00 59 1004.1
20240223223217 25 0 6.0 13.0 0.00 0.00 0.00 58 1004.1
20240223223029 25 0 6.0 11.0 0.00 0.00 0.00 59 1003.9
20240223222525 26 0 5.0 10.0 0.00 0.00 0.00 60 1003.9
20240223221715 26 0 5.0 10.0 0.00 0.00 0.00 60 1003.9
20240223221523 26 0 5.0 12.0 0.00 0.00 0.00 60 1003.4
20240223221012 26 0 5.0 12.0 0.00 0.00 0.00 60 1003.5
20240223220152 27 0 5.0 13.0 0.00 0.00 0.00 61 1003.5
20240223220004 27 0 5.0 13.0 0.00 0.00 0.00 62 1003.1
20240223215145 27 9 6.0 13.0 0.00 0.00 0.00 62 1003.2
20240223214644 28 25 6.0 13.0 0.00 0.00 0.00 61 1003.2
20240223214156 28 39 6.0 12.0 0.00 0.00 0.00 61 1003.1
20240223213643 28 30 6.0 11.0 0.00 0.00 0.00 61 1003.1
20240223213144 28 351 5.0 10.0 0.00 0.00 0.00 60 1003.1
20240223212957 28 0 4.0 8.0 0.00 0.00 0.00 61 1003.0
20240223212141 29 355 5.0 8.0 0.00 0.00 0.00 60 1003.0
20240223211638 29 349 5.0 9.0 0.00 0.00 0.00 61 1003.0
20240223211137 29 0 4.0 11.0 0.00 0.00 0.00 60 1002.7
20240223210637 29 0 4.0 11.0 0.00 0.00 0.00 62 1002.7
20240223210450 30 0 4.0 10.0 0.00 0.00 0.00 62 1002.8
20240223205635 30 351 4.0 12.0 0.00 0.00 0.00 62 1002.6
20240223205135 30 36 6.0 12.0 0.00 0.00 0.00 63 1002.6
20240223204633 30 34 6.0 12.0 0.00 0.00 0.00 63 1002.6
20240223204450 31 61 6.0 12.0 0.00 0.00 0.00 62 1002.5
20240223203943 31 0 5.0 12.0 0.00 0.00 0.00 62 1002.6
20240223203132 31 61 5.0 17.0 0.00 0.00 0.00 64 1002.6
20240223202644 32 351 5.0 17.0 0.00 0.00 0.00 64 1002.4
20240223202446 32 0 6.0 14.0 0.00 0.00 0.00 63 1002.4
20240223201628 32 337 6.0 11.0 0.00 0.00 0.00 64 1002.5
20240223201129 32 355 4.0 11.0 0.00 0.00 0.00 66 1002.3
20240223200628 32 64 4.0 9.0 0.00 0.00 0.00 67 1002.3
20240223200128 33 48 5.0 9.0 0.00 0.00 0.00 67 1002.3
20240223195628 33 26 5.0 9.0 0.00 0.00 0.00 67 1002.3
20240223195120 33 26 5.0 10.0 0.00 0.00 0.00 67 1002.4
20240223194620 33 27 6.0 11.0 0.00 0.00 0.00 66 1002.4
20240223194120 34 11 6.0 11.0 0.00 0.00 0.00 65 1002.3
20240223193622 34 19 5.0 11.0 0.00 0.00 0.00 65 1002.3
20240223193121 34 340 6.0 10.0 0.00 0.00 0.00 65 1002.3
20240223192620 34 19 6.0 12.0 0.00 0.00 0.00 65 1002.3
20240223192119 34 346 5.0 12.0 0.00 0.00 0.00 64 1002.3
20240223191629 34 10 5.0 11.0 0.00 0.00 0.00 63 1002.3
20240223191112 34 30 6.0 12.0 0.00 0.00 0.00 63 1002.2
20240223190557 34 16 6.0 12.0 0.00 0.00 0.00 62 1002.2
20240223190412 34 19 6.0 10.0 0.00 0.00 0.00 61 1002.2
20240223185549 35 13 6.0 10.0 0.00 0.00 0.00 62 1002.0
20240223185044 35 355 6.0 11.0 0.00 0.00 0.00 61 1002.0
20240223184556 35 25 6.0 11.0 0.00 0.00 0.00 61 1002.0
20240223184055 35 355 6.0 13.0 0.00 0.00 0.00 63 1001.9
20240223183849 36 12 6.0 13.0 0.00 0.00 0.00 62 1002.0
20240223183356 36 355 4.0 11.0 0.00 0.00 0.00 63 1002.0
20240223182540 36 300 4.0 11.0 0.00 0.00 0.00 65 1001.9
20240223182039 36 338 5.0 10.0 0.00 0.00 0.00 64 1001.9
20240223181538 36 0 5.0 11.0 0.00 0.00 0.00 62 1001.9
20240223181027 36 20 6.0 11.0 0.00 0.00 0.00 62 1002.0
20240223180523 36 355 6.0 11.0 0.00 0.00 0.00 61 1002.0
20240223180037 37 24 6.0 14.0 0.00 0.00 0.00 61 1002.0
20240223175833 37 28 6.0 14.0 0.00 0.00 0.00 60 1001.9
20240223175022 37 304 6.0 12.0 0.00 0.00 0.00 60 1002.0
20240223174844 38 344 6.0 14.0 0.00 0.00 0.00 60 1002.0
20240223174011 37 11 6.0 14.0 0.00 0.00 0.00 62 1002.0
20240223173509 37 0 5.0 11.0 0.00 0.00 0.00 62 1002.0
20240223173009 37 28 4.0 11.0 0.00 0.00 0.00 63 1002.0
20240223172504 37 311 5.0 11.0 0.00 0.00 0.00 63 1002.0
20240223172256 37 50 5.0 12.0 0.00 0.00 0.00 63 1002.0
20240223171619 37 5 6.0 15.0 0.00 0.00 0.00 62 1002.0
20240223171543 37 355 5.0 12.0 0.00 0.00 0.00 63 1002.0
20240223170442 37 336 5.0 15.0 0.00 0.00 0.00 63 1002.0
20240223165944 37 328 5.0 14.0 0.00 0.00 0.00 64 1001.9
20240223165439 37 348 6.0 14.0 0.00 0.00 0.00 65 1001.9
20240223164938 37 325 6.0 13.0 0.00 0.00 0.00 65 1001.9
20240223164436 37 323 7.0 13.0 0.00 0.00 0.00 65 1001.7
20240223163937 37 62 7.0 12.0 0.00 0.00 0.00 67 1001.7
20240223163436 37 34 6.0 12.0 0.00 0.00 0.00 68 1001.7
20240223162936 37 19 6.0 12.0 0.00 0.00 0.00 68 1001.5
20240223162435 37 311 5.0 12.0 0.00 0.00 0.00 71 1001.5
20240223161933 36 350 5.0 12.0 0.00 0.00 0.00 73 1001.4
20240223161433 36 74 6.0 12.0 0.00 0.00 0.00 74 1001.3
20240223160933 35 343 4.0 12.0 0.00 0.00 0.00 75 1001.3
20240223160434 35 11 3.0 10.0 0.00 0.00 0.00 75 1001.2
20240223155934 35 26 4.0 9.0 0.00 0.00 0.00 76 1001.2
20240223155433 35 76 6.0 11.0 0.00 0.00 0.00 76 1001.2
20240223154935 35 34 6.0 11.0 0.00 0.00 0.00 76 1001.2
20240223154610 35 44 6.0 14.0 0.00 0.00 0.00 78 1001.1
20240223154536 35 34 5.0 13.0 0.00 0.00 0.00 78 1001.1
20240223153603 35 287 4.0 10.0 0.00 0.00 0.00 78 1001.0
20240223153528 35 51 5.0 14.0 0.00 0.00 0.00 78 1001.1
20240223152429 35 355 3.0 9.0 0.00 0.00 0.00 79 1001.0
20240223151921 35 334 1.0 8.0 0.00 0.00 0.00 80 1001.0
20240223151419 35 355 2.0 9.0 0.00 0.00 0.00 80 1000.8
20240223150917 35 44 3.0 10.0 0.00 0.00 0.00 80 1000.8
20240223150413 35 41 2.0 10.0 0.00 0.00 0.00 81 1000.8
20240223150228 35 32 1.0 8.0 0.00 0.00 0.00 81 1000.7
20240223145411 35 26 2.0 8.0 0.00 0.00 0.00 81 1000.7
20240223145216 35 19 3.0 10.0 0.00 0.00 0.00 81 1000.7
20240223144412 35 84 3.0 10.0 0.00 0.00 0.00 81 1000.3
20240223144212 35 41 3.0 10.0 0.00 0.00 0.00 82 1000.3
20240223143400 34 44 3.0 10.0 0.00 0.00 0.00 83 1000.3
20240223142900 34 0 2.0 10.0 0.00 0.00 0.00 84 1000.4
20240223142400 34 64 1.0 5.0 0.00 0.00 0.00 84 1000.4
20240223141855 33 59 1.0 6.0 0.00 0.00 0.00 85 1000.4
20240223141347 33 51 1.0 6.0 0.00 0.00 0.00 86 1000.2
20240223140844 33 59 2.0 7.0 0.00 0.00 0.00 87 1000.2
20240223140343 33 14 3.0 10.0 0.00 0.00 0.00 87 1000.2
20240223135841 33 9 2.0 10.0 0.00 0.00 0.00 87 1000.1
20240223135342 32 35 2.0 6.0 0.00 0.00 0.00 88 1000.1
20240223134842 32 23 4.0 12.0 0.00 0.00 0.00 89 1000.1
20240223134343 32 22 6.0 17.0 0.00 0.00 0.00 89 999.8
20240223133841 32 32 8.0 18.0 0.00 0.00 0.00 91 999.8
20240223133654 31 59 8.0 18.0 0.00 0.00 0.00 93 999.7
20240223133143 31 19 5.0 16.0 0.00 0.00 0.00 95 999.4
20240223132339 31 30 3.0 14.0 0.00 0.00 0.00 95 999.4
20240223131838 30 41 3.0 9.0 0.00 0.00 0.00 96 999.3
20240223131328 29 338 2.0 9.0 0.00 0.00 0.00 95 999.0
20240223130825 28 309 1.0 6.0 0.00 0.00 0.00 95 998.9
20240223130324 27 26 1.0 6.0 0.00 0.00 0.00 95 998.8
20240223125825 26 0 1.0 4.0 0.00 0.00 0.00 95 998.5
20240223125310 26 0 0.0 4.0 0.00 0.00 0.00 94 998.4
20240223124808 25 20 0.0 4.0 0.00 0.00 0.00 94 998.4
20240223124313 25 23 1.0 5.0 0.00 0.00 0.00 94 998.2
20240223123809 24 27 2.0 5.0 0.00 0.00 0.00 94 998.2
20240223123253 23 41 1.0 5.0 0.00 0.00 0.00 93 998.1
20240223122749 23 17 1.0 4.0 0.00 0.00 0.00 93 997.8
20240223122245 23 39 1.0 3.0 0.00 0.00 0.00 92 997.8
20240223121733 23 40 1.0 3.0 0.00 0.00 0.00 92 997.8
20240223121230 23 40 0.0 2.0 0.00 0.00 0.00 92 997.6
20240223121047 23 40 0.0 2.0 0.00 0.00 0.00 92 997.6
20240223120229 23 40 1.0 3.0 0.00 0.00 0.00 92 997.6
20240223115714 23 40 1.0 3.0 0.00 0.00 0.00 92 997.4
20240223115210 23 41 0.0 3.0 0.00 0.00 0.00 92 997.4
20240223114712 23 42 0.0 0.0 0.00 0.00 0.00 91 997.4
20240223114214 23 42 0.0 0.0 0.00 0.00 0.00 92 997.2
20240223113711 23 43 0.0 0.0 0.00 0.00 0.00 92 997.2
20240223113206 23 49 0.0 0.0 0.00 0.00 0.00 92 997.3
20240223112704 23 0 0.0 0.0 0.00 0.00 0.00 92 997.2
20240223112153 23 0 0.0 0.0 0.00 0.00 0.00 92 997.2
20240223111652 23 42 0.0 0.0 0.00 0.00 0.00 92 997.2
20240223111146 23 42 0.0 0.0 0.00 0.00 0.00 91 997.2
20240223110641 23 44 0.0 0.0 0.00 0.00 0.00 91 997.2
20240223110117 23 44 0.0 0.0 0.00 0.00 0.00 91 997.2
20240223105614 23 47 0.0 0.0 0.00 0.00 0.00 91 997.1
20240223105114 23 0 0.0 0.0 0.00 0.00 0.00 91 997.1
20240223104617 23 47 0.0 0.0 0.00 0.00 0.00 90 997.1
20240223104113 24 45 0.0 0.0 0.00 0.00 0.00 91 997.1
20240223103611 24 0 0.0 0.0 0.00 0.00 0.00 90 997.1
20240223103052 24 0 0.0 0.0 0.00 0.00 0.00 90 997.1
20240223102546 24 0 0.0 0.0 0.00 0.00 0.00 90 996.9
20240223102042 24 0 0.0 0.0 0.00 0.00 0.00 90 996.9
20240223101534 24 47 0.0 0.0 0.00 0.00 0.00 90 996.9
20240223101032 24 45 0.0 0.0 0.00 0.00 0.00 90 996.9
20240223100524 24 0 0.0 0.0 0.00 0.00 0.00 90 996.9
20240223100021 24 49 0.0 0.0 0.00 0.00 0.00 90 996.9
20240223095520 24 0 0.0 0.0 0.00 0.00 0.00 89 996.8
20240223095016 24 0 0.0 0.0 0.00 0.00 0.00 89 996.8
20240223094511 24 0 0.0 0.0 0.00 0.00 0.00 89 996.8
20240223094010 25 0 0.0 0.0 0.00 0.00 0.00 89 996.8
20240223093811 25 0 0.0 0.0 0.00 0.00 0.00 89 996.8
20240223093000 25 0 0.0 0.0 0.00 0.00 0.00 89 996.8
20240223092451 25 47 0.0 0.0 0.00 0.00 0.00 89 996.8
20240223091955 25 0 0.0 0.0 0.00 0.00 0.00 89 996.8
20240223091748 25 42 0.0 0.0 0.00 0.00 0.00 89 996.8
20240223091239 25 42 0.0 0.0 0.00 0.00 0.00 89 996.8
20240223090440 25 42 0.0 0.0 0.00 0.00 0.00 88 996.8
20240223085938 25 46 0.0 0.0 0.00 0.00 0.00 88 996.7
20240223085738 25 0 0.0 0.0 0.00 0.00 0.00 88 996.8
20240223084937 25 0 0.0 0.0 0.00 0.00 0.00 88 996.8
20240223084423 26 49 0.0 0.0 0.00 0.00 0.00 88 996.8
20240223083926 26 47 0.0 0.0 0.00 0.00 0.00 88 996.8
20240223083422 26 0 0.0 0.0 0.00 0.00 0.00 88 996.8
20240223082920 26 44 0.0 0.0 0.00 0.00 0.00 88 996.8
20240223082419 26 44 0.0 0.0 0.00 0.00 0.00 88 996.8
20240223082226 26 43 0.0 0.0 0.00 0.00 0.00 87 996.8
20240223081415 26 47 0.0 0.0 0.00 0.00 0.00 87 996.9
20240223080913 26 47 0.0 0.0 0.00 0.00 0.00 87 996.9
20240223080407 26 47 0.0 0.0 0.00 0.00 0.00 87 996.9
20240223075906 26 42 0.0 0.0 0.00 0.00 0.00 87 996.9
20240223075401 26 41 0.0 0.0 0.00 0.00 0.00 87 996.9
20240223074842 26 41 0.0 0.0 0.00 0.00 0.00 86 996.9
20240223074355 26 41 0.0 0.0 0.00 0.00 0.00 86 996.9
20240223073844 27 41 0.0 0.0 0.00 0.00 0.00 86 997.0
20240223073332 27 41 0.0 0.0 0.00 0.00 0.00 86 997.0
20240223073135 27 41 0.0 0.0 0.00 0.00 0.00 86 997.0
20240223072324 27 41 0.0 0.0 0.00 0.00 0.00 85 997.0
20240223071816 27 41 0.0 0.0 0.00 0.00 0.00 85 997.0
20240223071314 27 41 0.0 0.0 0.00 0.00 0.00 86 997.1
20240223070815 27 41 0.0 0.0 0.00 0.00 0.00 86 997.1
20240223070315 27 41 0.0 0.0 0.00 0.00 0.00 85 997.1
20240223065816 27 42 0.0 0.0 0.00 0.00 0.00 85 997.2
20240223065312 27 42 0.0 0.0 0.00 0.00 0.00 85 997.2
20240223064742 27 0 0.0 0.0 0.00 0.00 0.00 84 997.2
20240223064225 27 47 0.0 0.0 0.00 0.00 0.00 84 997.4
20240223063715 27 41 0.0 0.0 0.00 0.00 0.00 84 997.4
20240223063214 27 41 0.0 0.0 0.00 0.00 0.00 84 997.4
20240223063021 28 41 0.0 0.0 0.00 0.00 0.00 84 997.2
20240223062202 28 41 0.0 0.0 0.00 0.00 0.00 84 997.2
20240223061701 28 41 0.0 0.0 0.00 0.00 0.00 84 997.2
20240223061150 28 41 0.0 0.0 0.00 0.00 0.00 84 997.0
20240223060944 28 42 0.0 0.0 0.00 0.00 0.00 84 997.0
20240223060138 28 42 0.0 0.0 0.00 0.00 0.00 84 997.0
20240223055632 28 43 0.0 0.0 0.00 0.00 0.00 84 997.1
20240223055431 28 0 0.0 0.0 0.00 0.00 0.00 83 997.1
20240223054623 28 0 0.0 0.0 0.00 0.00 0.00 82 997.2
20240223054120 28 41 0.0 0.0 0.00 0.00 0.00 82 997.3
20240223053618 28 41 0.0 0.0 0.00 0.00 0.00 83 997.4
20240223053114 28 41 0.0 0.0 0.00 0.00 0.00 83 997.4
20240223052610 28 41 0.0 0.0 0.00 0.00 0.00 83 997.4
20240223052105 28 41 0.0 0.0 0.00 0.00 0.00 83 997.4
20240223051600 28 41 0.0 0.0 0.00 0.00 0.00 83 997.4
20240223051106 28 41 0.0 0.0 0.00 0.00 0.00 83 997.5
20240223050553 28 41 0.0 0.0 0.00 0.00 0.00 83 997.5
20240223050046 28 41 0.0 0.0 0.00 0.00 0.00 83 997.4
20240223045535 28 41 0.0 3.0 0.00 0.00 0.00 82 997.5
20240223045029 28 41 0.0 3.0 0.00 0.00 0.00 83 997.5
20240223044515 28 14 0.0 0.0 0.00 0.00 0.00 82 997.5
20240223044300 28 172 0.0 0.0 0.00 0.00 0.00 82 997.6
20240223043452 28 88 0.0 0.0 0.00 0.00 0.00 82 997.6
20240223042951 28 86 0.0 0.0 0.00 0.00 0.00 82 997.6
20240223042438 28 0 0.0 0.0 0.00 0.00 0.00 81 997.9
20240223041937 28 84 0.0 0.0 0.00 0.00 0.00 80 998.0
20240223041429 29 84 0.0 0.0 0.00 0.00 0.00 80 998.1
20240223040924 29 84 0.0 0.0 0.00 0.00 0.00 80 998.1
20240223040419 29 84 0.0 0.0 0.00 0.00 0.00 81 998.1
20240223040004 29 84 0.0 0.0 0.00 0.00 0.00 80 998.2
20240223035949 29 84 0.0 0.0 0.00 0.00 0.00 80 998.2
20240223034908 29 84 0.0 0.0 0.00 0.00 0.00 79 998.2
20240223034403 30 84 0.0 0.0 0.00 0.00 0.00 79 998.4
20240223033858 30 84 0.0 0.0 0.00 0.00 0.00 78 998.4
20240223033356 30 84 0.0 0.0 0.00 0.00 0.00 78 998.5
20240223033156 30 84 0.0 0.0 0.00 0.00 0.00 78 998.6
20240223032345 30 84 0.0 0.0 0.00 0.00 0.00 78 998.6
20240223031842 31 84 0.0 0.0 0.00 0.00 0.00 78 998.6
20240223031337 31 84 0.0 0.0 0.00 0.00 0.00 77 998.7
20240223031155 31 0 0.0 0.0 0.00 0.00 0.00 77 998.7
20240223030334 31 88 0.0 0.0 0.00 0.00 0.00 76 998.7
20240223025834 31 84 0.0 0.0 0.00 0.00 0.00 76 998.8
20240223025320 32 84 0.0 0.0 0.00 0.00 0.00 75 998.8
20240223024814 32 88 0.0 0.0 0.00 0.00 0.00 74 998.8